| time (UTC) | temp C | wind direction | speed KPH | gust KPH | rain 1hr cm | rain 24hr cm | rain mn cm | humidity % | barometer mb |
| 20260502181914 | 17 | 164 | 4.8 | 9.7 | 0.00 | 0.00 | 0.00 | 79 | 1013.4 |
| 20260502181406 | 17 | 152 | 4.8 | 9.7 | 0.00 | 0.00 | 0.00 | 80 | 1013.4 |
| 20260502180859 | 17 | 96 | 6.4 | 9.7 | 0.00 | 0.00 | 0.00 | 80 | 1013.4 |
| 20260502170224 | 16 | 6 | 3.2 | 4.8 | 0.00 | 0.00 | 0.00 | 85 | 1014.1 |
| 20260502164156 | 15 | 273 | 0.0 | 3.2 | 0.00 | 0.00 | 0.00 | 87 | 1014.1 |
| 20260502163649 | 15 | 295 | 0.0 | 6.4 | 0.00 | 0.00 | 0.00 | 88 | 1014.1 |
| 20260502163141 | 15 | 270 | 1.6 | 6.4 | 0.00 | 0.00 | 0.00 | 88 | 1014.1 |
| 20260502162127 | 15 | 169 | 3.2 | 6.4 | 0.00 | 0.00 | 0.00 | 88 | 1014.1 |
| 20260502161112 | 15 | 193 | 6.4 | 9.7 | 0.00 | 0.00 | 0.00 | 89 | 1014.1 |
| 20260502160604 | 15 | 310 | 1.6 | 11.3 | 0.00 | 0.00 | 0.00 | 89 | 1014.1 |
| 20260502152000 | 14 | 341 | 0.0 | 9.7 | 0.00 | 0.00 | 0.00 | 90 | 1013.8 |
| 20260502151452 | 14 | 144 | 0.0 | 9.7 | 0.00 | 0.00 | 0.00 | 91 | 1013.8 |
| 20260502150945 | 14 | 35 | 6.4 | 11.3 | 0.00 | 0.00 | 0.00 | 91 | 1013.4 |
| 20260502150438 | 14 | 104 | 4.8 | 11.3 | 0.00 | 0.00 | 0.00 | 91 | 1013.4 |
| 20260502130650 | 13 | 190 | 0.0 | 3.2 | 0.00 | 0.00 | 0.00 | 93 | 1012.8 |
| 20260502130143 | 13 | 188 | 1.6 | 3.2 | 0.00 | 0.00 | 0.00 | 93 | 1012.8 |
| 20260502123606 | 13 | 241 | 1.6 | 4.8 | 0.00 | 0.00 | 0.00 | 93 | 1012.8 |
| 20260502123059 | 13 | 270 | 0.0 | 6.4 | 0.00 | 0.00 | 0.00 | 93 | 1012.8 |
| 20260502122552 | 13 | 202 | 3.2 | 6.4 | 0.00 | 0.00 | 0.00 | 93 | 1012.8 |
| 20260502122044 | 13 | 211 | 4.8 | 6.4 | 0.00 | 0.00 | 0.00 | 93 | 1012.8 |
| 20260502121537 | 13 | 236 | 4.8 | 9.7 | 0.00 | 0.00 | 0.00 | 93 | 1012.4 |
| 20260502121030 | 13 | 221 | 6.4 | 9.7 | 0.00 | 0.00 | 0.00 | 93 | 1012.4 |
| 20260502120523 | 13 | 278 | 1.6 | 11.3 | 0.00 | 0.00 | 0.00 | 93 | 1012.4 |
| 20260502115509 | 13 | 231 | 8.0 | 9.7 | 0.00 | 0.00 | 0.00 | 93 | 1012.8 |
| 20260502115001 | 13 | 245 | 3.2 | 9.7 | 0.00 | 0.00 | 0.00 | 92 | 1012.4 |
| 20260502114454 | 14 | 232 | 6.4 | 9.7 | 0.00 | 0.00 | 0.00 | 93 | 1012.4 |
| 20260502113947 | 14 | 184 | 3.2 | 9.7 | 0.00 | 0.00 | 0.00 | 92 | 1012.8 |
| 20260502113439 | 14 | 213 | 8.0 | 9.7 | 0.00 | 0.00 | 0.00 | 92 | 1012.4 |
| 20260502112932 | 14 | 225 | 3.2 | 4.8 | 0.00 | 0.00 | 0.00 | 92 | 1012.4 |
| 20260502112426 | 14 | 233 | 3.2 | 6.4 | 0.00 | 0.00 | 0.00 | 92 | 1012.4 |
| 20260502111918 | 14 | 240 | 3.2 | 6.4 | 0.00 | 0.00 | 0.00 | 92 | 1012.4 |
| 20260502111410 | 14 | 261 | 3.2 | 3.2 | 0.00 | 0.00 | 0.00 | 92 | 1012.4 |
| 20260502110903 | 13 | 270 | 1.6 | 3.2 | 0.00 | 0.00 | 0.00 | 92 | 1012.4 |
| 20260502110356 | 13 | 259 | 1.6 | 4.8 | 0.00 | 0.00 | 0.00 | 92 | 1012.4 |
| 20260502105849 | 13 | 282 | 0.0 | 4.8 | 0.00 | 0.00 | 0.00 | 92 | 1012.4 |
| 20260502105341 | 14 | 241 | 3.2 | 4.8 | 0.00 | 0.00 | 0.00 | 92 | 1012.4 |
| 20260502104834 | 14 | 228 | 3.2 | 6.4 | 0.00 | 0.00 | 0.00 | 92 | 1012.1 |
| 20260502104327 | 14 | 186 | 3.2 | 6.4 | 0.00 | 0.00 | 0.00 | 92 | 1012.4 |
| 20260502103820 | 14 | 277 | 1.6 | 3.2 | 0.00 | 0.00 | 0.00 | 92 | 1012.1 |
| 20260502102804 | 14 | 261 | 0.0 | 4.8 | 0.00 | 0.00 | 0.00 | 92 | 1012.4 |
| 20260502102258 | 14 | 248 | 0.0 | 4.8 | 0.00 | 0.00 | 0.00 | 92 | 1012.4 |
| 20260502101243 | 13 | 225 | 4.8 | 6.4 | 0.00 | 0.00 | 0.00 | 92 | 1012.1 |
| 20260502100736 | 13 | 273 | 1.6 | 6.4 | 0.00 | 0.00 | 0.00 | 92 | 1012.1 |
| 20260502100229 | 13 | 275 | 1.6 | 6.4 | 0.00 | 0.00 | 0.00 | 92 | 1012.1 |
| 20260502091116 | 14 | 276 | 3.2 | 4.8 | 0.00 | 0.00 | 0.00 | 90 | 1012.4 |
| 20260502090609 | 14 | 279 | 3.2 | 3.2 | 0.00 | 0.00 | 0.00 | 90 | 1012.4 |
| 20260502071330 | 14 | 235 | 1.6 | 4.8 | 0.00 | 0.00 | 0.00 | 88 | 1013.1 |
| 20260502070822 | 14 | 239 | 1.6 | 4.8 | 0.00 | 0.00 | 0.00 | 88 | 1013.1 |
| 20260502070315 | 15 | 225 | 3.2 | 4.8 | 0.00 | 0.00 | 0.00 | 88 | 1013.4 |
| 20260502064753 | 15 | 244 | 1.6 | 4.8 | 0.00 | 0.00 | 0.00 | 87 | 1013.4 |
| 20260502064247 | 15 | 198 | 4.8 | 4.8 | 0.00 | 0.00 | 0.00 | 87 | 1013.4 |
| 20260502063738 | 15 | 186 | 4.8 | 6.4 | 0.00 | 0.00 | 0.00 | 87 | 1013.4 |
| 20260502063231 | 15 | 155 | 4.8 | 6.4 | 0.00 | 0.00 | 0.00 | 87 | 1013.1 |
| 20260502062724 | 15 | 284 | 1.6 | 3.2 | 0.00 | 0.00 | 0.00 | 87 | 1013.1 |
| 20260502061202 | 15 | 96 | 1.6 | 6.4 | 0.00 | 0.00 | 0.00 | 87 | 1012.8 |
| 20260502060655 | 15 | 14 | 1.6 | 9.7 | 0.00 | 0.00 | 0.00 | 87 | 1012.8 |
| 20260502055641 | 15 | 339 | 0.0 | 6.4 | 0.00 | 0.00 | 0.00 | 87 | 1013.1 |
| 20260502055134 | 15 | 83 | 3.2 | 4.8 | 0.00 | 0.00 | 0.00 | 87 | 1013.1 |
| 20260502054626 | 15 | 160 | 1.6 | 4.8 | 0.00 | 0.00 | 0.00 | 87 | 1012.8 |
| 20260502054118 | 15 | 57 | 1.6 | 4.8 | 0.00 | 0.00 | 0.00 | 87 | 1012.8 |
| 20260502053104 | 15 | 142 | 3.2 | 4.8 | 0.00 | 0.00 | 0.00 | 88 | 1013.1 |
| 20260502052557 | 15 | 234 | 1.6 | 6.4 | 0.00 | 0.00 | 0.00 | 88 | 1013.1 |
| 20260502052050 | 15 | 199 | 1.6 | 9.7 | 0.00 | 0.00 | 0.00 | 88 | 1013.1 |
| 20260502051035 | 15 | 108 | 1.6 | 4.8 | 0.00 | 0.00 | 0.00 | 88 | 1012.8 |
| 20260502050528 | 15 | 287 | 0.0 | 4.8 | 0.00 | 0.00 | 0.00 | 88 | 1013.1 |
| 20260502050020 | 15 | 264 | 0.0 | 4.8 | 0.00 | 0.00 | 0.00 | 88 | 1012.8 |
| 20260502045513 | 15 | 200 | 3.2 | 4.8 | 0.00 | 0.00 | 0.00 | 88 | 1012.8 |
| 20260502045006 | 15 | 344 | 0.0 | 3.2 | 0.00 | 0.00 | 0.00 | 88 | 1012.8 |
| 20260502044500 | 15 | 188 | 0.0 | 3.2 | 0.00 | 0.00 | 0.00 | 88 | 1012.8 |
| 20260502043951 | 15 | 283 | 0.0 | 3.2 | 0.00 | 0.00 | 0.00 | 88 | 1012.8 |
| 20260502043444 | 15 | 345 | 1.6 | 3.2 | 0.00 | 0.00 | 0.00 | 88 | 1012.4 |
| 20260502042937 | 15 | 184 | 1.6 | 4.8 | 0.00 | 0.00 | 0.00 | 89 | 1012.4 |
| 20260502042430 | 15 | 231 | 1.6 | 4.8 | 0.00 | 0.00 | 0.00 | 89 | 1012.4 |
| 20260502041923 | 15 | 261 | 0.0 | 4.8 | 0.00 | 0.00 | 0.00 | 89 | 1012.4 |
| 20260502041415 | 15 | 207 | 3.2 | 4.8 | 0.00 | 0.00 | 0.00 | 89 | 1012.4 |
| 20260502040908 | 15 | 221 | 3.2 | 4.8 | 0.00 | 0.00 | 0.00 | 89 | 1012.4 |
| 20260502040401 | 15 | 187 | 3.2 | 6.4 | 0.00 | 0.00 | 0.00 | 89 | 1012.1 |
| 20260502035854 | 15 | 199 | 3.2 | 6.4 | 0.00 | 0.00 | 0.00 | 89 | 1012.1 |
| 20260502035346 | 15 | 253 | 3.2 | 4.8 | 0.00 | 0.00 | 0.00 | 89 | 1012.1 |
| 20260502034839 | 15 | 210 | 3.2 | 4.8 | 0.00 | 0.00 | 0.00 | 89 | 1012.1 |
| 20260502034332 | 15 | 187 | 3.2 | 4.8 | 0.00 | 0.00 | 0.00 | 89 | 1011.8 |
| 20260502033825 | 15 | 185 | 3.2 | 4.8 | 0.00 | 0.00 | 0.00 | 89 | 1011.8 |
| 20260502033317 | 15 | 237 | 1.6 | 4.8 | 0.00 | 0.00 | 0.00 | 89 | 1011.8 |
| 20260502032809 | 15 | 212 | 3.2 | 9.7 | 0.00 | 0.00 | 0.00 | 89 | 1011.4 |
| 20260502032305 | 15 | 258 | 3.2 | 9.7 | 0.00 | 0.00 | 0.00 | 88 | 1011.4 |
| 20260502031755 | 15 | 244 | 4.8 | 11.3 | 0.00 | 0.00 | 0.00 | 88 | 1011.4 |
| 20260502031248 | 15 | 231 | 4.8 | 12.9 | 0.00 | 0.00 | 0.00 | 88 | 1011.4 |
| 20260502030740 | 15 | 239 | 6.4 | 12.9 | 0.00 | 0.00 | 0.00 | 87 | 1011.4 |
| 20260502030233 | 15 | 209 | 3.2 | 9.7 | 0.00 | 0.00 | 0.00 | 87 | 1011.4 |
| 20260502025726 | 15 | 209 | 3.2 | 12.9 | 0.00 | 0.00 | 0.00 | 87 | 1011.4 |
| 20260502025219 | 15 | 278 | 6.4 | 14.5 | 0.00 | 0.00 | 0.00 | 86 | 1011.1 |
| 20260502024204 | 15 | 246 | 9.7 | 17.7 | 0.00 | 0.00 | 0.00 | 85 | 1011.4 |
| 20260502023657 | 15 | 253 | 6.4 | 14.5 | 0.00 | 0.00 | 0.00 | 85 | 1011.4 |
| 20260502023150 | 16 | 253 | 11.3 | 16.1 | 0.00 | 0.00 | 0.00 | 84 | 1011.4 |
| 20260502022643 | 16 | 245 | 11.3 | 16.1 | 0.00 | 0.00 | 0.00 | 84 | 1011.4 |
| 20260502022135 | 16 | 275 | 12.9 | 14.5 | 0.00 | 0.00 | 0.00 | 83 | 1011.4 |
| 20260502021628 | 16 | 233 | 6.4 | 12.9 | 0.00 | 0.00 | 0.00 | 83 | 1011.1 |
| 20260502021121 | 16 | 252 | 6.4 | 16.1 | 0.00 | 0.00 | 0.00 | 83 | 1011.1 |
| 20260502020106 | 16 | 268 | 4.8 | 16.1 | 0.00 | 0.00 | 0.00 | 83 | 1011.1 |
| 20260502015558 | 16 | 224 | 11.3 | 17.7 | 0.00 | 0.00 | 0.00 | 82 | 1011.1 |
| 20260502015051 | 16 | 264 | 8.0 | 22.5 | 0.00 | 0.00 | 0.00 | 83 | 1011.1 |
| 20260502014544 | 16 | 271 | 4.8 | 22.5 | 0.00 | 0.00 | 0.00 | 82 | 1011.1 |
| 20260502014037 | 16 | 216 | 8.0 | 22.5 | 0.00 | 0.00 | 0.00 | 81 | 1011.1 |
| 20260502013529 | 16 | 251 | 9.7 | 22.5 | 0.00 | 0.00 | 0.00 | 81 | 1010.7 |
| 20260502013022 | 17 | 211 | 12.9 | 20.9 | 0.00 | 0.00 | 0.00 | 80 | 1011.1 |
| 20260502012515 | 17 | 241 | 6.4 | 20.9 | 0.00 | 0.00 | 0.00 | 79 | 1011.1 |
| 20260502012008 | 17 | 210 | 17.7 | 20.9 | 0.00 | 0.00 | 0.00 | 79 | 1011.1 |
| 20260502011501 | 17 | 207 | 9.7 | 17.7 | 0.00 | 0.00 | 0.00 | 79 | 1011.1 |
| 20260502010953 | 17 | 241 | 4.8 | 22.5 | 0.00 | 0.00 | 0.00 | 79 | 1011.1 |
| 20260502010446 | 17 | 228 | 11.3 | 22.5 | 0.00 | 0.00 | 0.00 | 78 | 1011.1 |
| 20260502005938 | 17 | 239 | 17.7 | 22.5 | 0.00 | 0.00 | 0.00 | 76 | 1011.1 |
| 20260502004417 | 17 | 230 | 19.3 | 27.4 | 0.00 | 0.00 | 0.00 | 76 | 1011.1 |
| 20260502003909 | 17 | 218 | 14.5 | 27.4 | 0.00 | 0.00 | 0.00 | 77 | 1011.1 |
| 20260502003402 | 17 | 255 | 12.9 | 25.7 | 0.00 | 0.00 | 0.00 | 76 | 1010.7 |
| 20260502002855 | 17 | 231 | 20.9 | 25.7 | 0.00 | 0.00 | 0.00 | 75 | 1011.1 |
| 20260502002347 | 18 | 229 | 14.5 | 25.7 | 0.00 | 0.00 | 0.00 | 74 | 1011.1 |
| 20260502001841 | 18 | 237 | 12.9 | 25.7 | 0.00 | 0.00 | 0.00 | 74 | 1011.1 |
| 20260502001333 | 17 | 236 | 11.3 | 22.5 | 0.00 | 0.00 | 0.00 | 75 | 1010.7 |
| 20260502000825 | 18 | 241 | 14.5 | 25.7 | 0.00 | 0.00 | 0.00 | 74 | 1011.1 |
| 20260501235812 | 18 | 281 | 8.0 | 27.4 | 0.00 | 0.00 | 0.00 | 73 | 1011.1 |
| 20260501235305 | 18 | 243 | 14.5 | 27.4 | 0.00 | 0.00 | 0.00 | 74 | 1011.1 |
| 20260501234756 | 18 | 212 | 19.3 | 27.4 | 0.00 | 0.00 | 0.00 | 72 | 1011.1 |
| 20260501234249 | 18 | 181 | 14.5 | 25.7 | 0.00 | 0.00 | 0.00 | 73 | 1011.1 |
| 20260501233742 | 18 | 201 | 19.3 | 27.4 | 0.00 | 0.00 | 0.00 | 74 | 1011.1 |
| 20260501233234 | 18 | 263 | 17.7 | 27.4 | 0.00 | 0.00 | 0.00 | 73 | 1011.1 |
| 20260501232727 | 18 | 225 | 17.7 | 25.7 | 0.00 | 0.00 | 0.00 | 72 | 1011.1 |
| 20260501232220 | 18 | 197 | 14.5 | 29.0 | 0.00 | 0.00 | 0.00 | 74 | 1011.1 |
| 20260501231713 | 18 | 225 | 19.3 | 29.0 | 0.00 | 0.00 | 0.00 | 75 | 1011.4 |
| 20260501231206 | 18 | 220 | 16.1 | 27.4 | 0.00 | 0.00 | 0.00 | 72 | 1011.1 |
| 20260501230659 | 18 | 227 | 19.3 | 27.4 | 0.00 | 0.00 | 0.00 | 73 | 1011.1 |
| 20260501230151 | 19 | 220 | 16.1 | 25.7 | 0.00 | 0.00 | 0.00 | 72 | 1011.1 |
| 20260501225136 | 18 | 219 | 9.7 | 24.1 | 0.00 | 0.00 | 0.00 | 73 | 1011.4 |
| 20260501224629 | 18 | 268 | 11.3 | 24.1 | 0.00 | 0.00 | 0.00 | 74 | 1011.4 |
| 20260501224121 | 18 | 257 | 16.1 | 22.5 | 0.00 | 0.00 | 0.00 | 73 | 1011.4 |
| 20260501223614 | 18 | 267 | 12.9 | 24.1 | 0.00 | 0.00 | 0.00 | 75 | 1011.4 |
| 20260501223107 | 18 | 226 | 14.5 | 27.4 | 0.00 | 0.00 | 0.00 | 74 | 1011.4 |
| 20260501222600 | 18 | 203 | 8.0 | 24.1 | 0.00 | 0.00 | 0.00 | 74 | 1011.8 |
| 20260501222053 | 18 | 264 | 19.3 | 24.1 | 0.00 | 0.00 | 0.00 | 73 | 1011.8 |
| 20260501221546 | 18 | 246 | 11.3 | 25.7 | 0.00 | 0.00 | 0.00 | 75 | 1011.8 |
| 20260501221038 | 18 | 244 | 17.7 | 29.0 | 0.00 | 0.00 | 0.00 | 74 | 1011.8 |
| 20260501220530 | 18 | 209 | 24.1 | 29.0 | 0.00 | 0.00 | 0.00 | 73 | 1012.1 |
| 20260501220023 | 19 | 270 | 19.3 | 24.1 | 0.00 | 0.00 | 0.00 | 72 | 1012.1 |
| 20260501215516 | 18 | 269 | 8.0 | 24.1 | 0.00 | 0.00 | 0.00 | 74 | 1012.1 |
| 20260501214502 | 18 | 246 | 11.3 | 25.7 | 0.00 | 0.00 | 0.00 | 73 | 1012.4 |
| 20260501213447 | 18 | 204 | 14.5 | 24.1 | 0.00 | 0.00 | 0.00 | 74 | 1012.4 |
| 20260501212432 | 18 | 251 | 14.5 | 24.1 | 0.00 | 0.00 | 0.00 | 72 | 1012.4 |
| 20260501211418 | 18 | 245 | 17.7 | 20.9 | 0.00 | 0.00 | 0.00 | 72 | 1012.8 |
| 20260501210911 | 18 | 259 | 14.5 | 24.1 | 0.00 | 0.00 | 0.00 | 71 | 1012.4 |
| 20260501210404 | 19 | 308 | 14.5 | 24.1 | 0.00 | 0.00 | 0.00 | 70 | 1012.4 |
| 20260501205856 | 18 | 203 | 6.4 | 24.1 | 0.00 | 0.00 | 0.00 | 72 | 1012.8 |
| 20260501205348 | 18 | 251 | 16.1 | 24.1 | 0.00 | 0.00 | 0.00 | 72 | 1012.8 |
| 20260501204841 | 18 | 269 | 12.9 | 22.5 | 0.00 | 0.00 | 0.00 | 72 | 1012.4 |
| 20260501204334 | 18 | 235 | 16.1 | 22.5 | 0.00 | 0.00 | 0.00 | 72 | 1012.8 |
| 20260501203827 | 18 | 238 | 12.9 | 24.1 | 0.00 | 0.00 | 0.00 | 72 | 1012.8 |
| 20260501203320 | 18 | 282 | 14.5 | 24.1 | 0.00 | 0.00 | 0.00 | 73 | 1012.8 |
| 20260501202813 | 18 | 268 | 12.9 | 22.5 | 0.00 | 0.00 | 0.00 | 71 | 1012.8 |
| 20260501202306 | 18 | 258 | 17.7 | 22.5 | 0.00 | 0.00 | 0.00 | 73 | 1012.8 |
| 20260501201757 | 18 | 232 | 19.3 | 22.5 | 0.00 | 0.00 | 0.00 | 71 | 1012.8 |
| 20260501201251 | 18 | 206 | 17.7 | 22.5 | 0.00 | 0.00 | 0.00 | 72 | 1012.8 |
| 20260501200237 | 18 | 235 | 11.3 | 22.5 | 0.00 | 0.00 | 0.00 | 71 | 1012.8 |
| 20260501195221 | 18 | 264 | 11.3 | 20.9 | 0.00 | 0.00 | 0.00 | 72 | 1013.1 |
| 20260501194714 | 18 | 200 | 9.7 | 22.5 | 0.00 | 0.00 | 0.00 | 73 | 1013.1 |
| 20260501194207 | 18 | 264 | 12.9 | 24.1 | 0.00 | 0.00 | 0.00 | 73 | 1013.1 |
| 20260501193700 | 18 | 242 | 14.5 | 24.1 | 0.00 | 0.00 | 0.00 | 73 | 1013.1 |
| 20260501193153 | 18 | 268 | 16.1 | 22.5 | 0.00 | 0.00 | 0.00 | 72 | 1013.1 |
| 20260501192645 | 18 | 214 | 14.5 | 22.5 | 0.00 | 0.00 | 0.00 | 72 | 1013.1 |
| 20260501192139 | 18 | 196 | 9.7 | 20.9 | 0.00 | 0.00 | 0.00 | 72 | 1013.1 |
| 20260501191631 | 18 | 210 | 9.7 | 20.9 | 0.00 | 0.00 | 0.00 | 71 | 1013.1 |
| 20260501191123 | 18 | 259 | 8.0 | 20.9 | 0.00 | 0.00 | 0.00 | 71 | 1013.1 |
| 20260501190616 | 19 | 243 | 11.3 | 24.1 | 0.00 | 0.00 | 0.00 | 70 | 1013.1 |
| 20260501190109 | 19 | 215 | 11.3 | 24.1 | 0.00 | 0.00 | 0.00 | 70 | 1013.4 |
| 20260501185601 | 20 | 226 | 14.5 | 16.1 | 0.00 | 0.00 | 0.00 | 67 | 1013.4 |
| 20260501185054 | 19 | 276 | 12.9 | 20.9 | 0.00 | 0.00 | 0.00 | 68 | 1013.4 |
| 20260501184546 | 20 | 261 | 9.7 | 20.9 | 0.00 | 0.00 | 0.00 | 66 | 1013.4 |
| 20260501184040 | 20 | 205 | 9.7 | 16.1 | 0.00 | 0.00 | 0.00 | 65 | 1013.4 |
| 20260501183532 | 20 | 324 | 0.0 | 12.9 | 0.00 | 0.00 | 0.00 | 65 | 1013.4 |
| 20260501183025 | 20 | 223 | 8.0 | 12.9 | 0.00 | 0.00 | 0.00 | 64 | 1013.8 |